星链-5721 (STARLINK-5721 )

导读

STARLINK-5721是美国SpaceX公司星链(Starlink)卫星互联网项目中的一颗卫星,于2023年2月12日发射升空。作为星链星座组网的组成部分,它运行在近地轨道,旨在为全球偏远地区提供低延迟、高速的宽带互联网接入服务,推动全球互联网覆盖的普及,目前该卫星已正常入轨,服务于星链卫星互联网系统。

基本信息
目录编号:
55617
目录名称:
STARLINK-5721
国际标识:
2023-020BA
轨道中心:
EARTH
卫星名称:
星链-5721
卫星全名:
星链-5721 (STARLINK-5721 )
卫星状态:
在轨 (已飞行1308 天)
发射日期:
2023-02-12 UTC
国别 :
美国 (US)
星等 :
--
该卫星已列入 空间交会检测服务 Space Conjunction Data Service (SCDS) ,当前飞行风险评估等级: 无高风险
轨道信息
数据来源 国际轨道数据
星历时间: 2026-09-11T23:45:17+0800
1天前
查看轨道信息
半长轴: 6861.182km
偏心率: 0.000093
轨道倾角: 43.002°
近地点辐角 266.368°
升交点赤经 23.722°
平近点角 93.707°
近地点: 482.406km
远地点: 483.684km
周期: 94.267分钟
每日圈数: 15.275816
详细信息
固有亮度:
5
最大亮度:
2.5
卫星平台:
Starlink v1.5
覆盖范围:
全球
运营商:
太空探索技术公司
运营商所在国:
美国
制造商(研发单位):
太空探索技术公司
制造商所在国:
美国
使用方式:
暂无
卫星简介
星链(Starlink)计划是由太空探索技术公司(SpaceX)提出的一个巨型低轨卫星互联网星座项目,计划在2019年至2024年间在太空搭建由约1.2万颗卫星组成的“星链”网络,其中1584颗将部署在地球上空550千米处的近地轨道,并从2020年开始工作。该卫星仍在工作。
2D轨道图
3D轨道图
轨道高度分析图
轨道倾角分析图
轨道综合分析图
查看轨道综合分析图
与全量物体交会距离演化趋势
与全量物体交会风险概率演化趋势